Location: Tel Aviv
(32.0670°N, 34.7670°E)
Time: 01:28:01
(UTC+03:00)

A-11 Canister half - All Passes

Search period start: 13 September 2024 00:00
Search period end: 23 September 2024 00:00
Orbit: 1515 x 1684 km, 47.2° (Epoch: 12 September)

Date Brightness Start Highest point End Pass type
(mag) Time Alt. Az. Time Alt. Az. Time Alt. Az.
13 Sep - 00:49:46 10° NW 00:58:32 45° NNE 01:07:25 10° E visible
13 Sep - 02:54:38 10° NW 03:03:52 71° SW 03:13:23 10° SE visible
13 Sep - 05:02:23 10° W 05:07:42 17° SW 05:13:09 10° SSW visible
13 Sep - 16:10:42 10° SE 16:12:56 11° ESE 16:15:08 10° ESE daylight
13 Sep - 18:07:19 10° SSW 18:16:34 57° SE 18:25:35 10° ENE daylight
13 Sep - 20:12:29 10° WSW 20:21:35 52° NNW 20:30:33 10° NE visible
13 Sep - 22:20:23 10° WNW 22:28:23 31° N 22:36:22 10° ENE visible
14 Sep - 00:26:47 10° NW 00:35:28 43° NNE 00:44:15 10° E visible
14 Sep - 02:31:39 10° NW 02:40:55 76° SW 02:50:25 10° SE visible
14 Sep - 04:38:58 10° W 04:44:48 18° SW 04:50:46 10° SSW visible
14 Sep - 17:44:26 10° SSW 17:53:37 53° SE 18:02:33 10° ENE daylight
14 Sep - 19:49:21 10° WSW 19:58:32 54° NNW 20:07:34 10° NE visible
14 Sep - 21:57:15 10° WNW 22:05:15 31° N 22:13:16 10° NE visible
15 Sep - 00:03:46 10° NW 00:12:24 41° NNE 00:21:06 10° E visible
15 Sep - 02:08:40 10° NW 02:17:57 81° SW 02:27:27 10° SE visible
15 Sep - 04:15:37 10° W 04:21:53 20° SW 04:28:18 10° SSW visible
15 Sep - 17:21:35 10° SSW 17:30:40 50° SE 17:39:31 10° ENE daylight
15 Sep - 19:26:15 10° WSW 19:35:30 57° NNW 19:44:36 10° NE visible
15 Sep - 21:34:05 10° WNW 21:42:09 32° N 21:50:10 10° NE visible
15 Sep - 23:40:46 10° NW 23:49:19 40° NNE 23:57:55 10° E visible
16 Sep - 01:45:41 10° NW 01:54:58 85° SW 02:04:28 10° SE visible
16 Sep - 03:52:19 10° W 03:58:58 22° SW 04:05:47 10° S visible
16 Sep - 16:58:43 10° SSW 17:07:44 46° SE 17:16:29 10° ENE daylight
16 Sep - 19:03:07 10° WSW 19:12:29 60° NNW 19:21:37 10° NE visible
16 Sep - 21:10:55 10° WNW 21:19:01 32° N 21:27:05 10° NE visible
16 Sep - 23:17:44 10° NW 23:26:14 38° NNE 23:34:46 10° E visible
17 Sep - 01:22:41 10° NW 01:31:59 90° SW 01:41:28 10° SE visible
17 Sep - 03:29:04 10° WNW 03:36:03 24° SW 03:43:12 10° S night (unlit)
17 Sep - 16:35:54 10° SSW 16:44:47 43° SE 16:53:25 10° ENE daylight
17 Sep - 18:40:01 10° WSW 18:49:27 63° NNW 18:58:39 10° NE daylight
17 Sep - 20:47:44 10° WNW 20:55:55 33° N 21:04:00 10° NE visible
17 Sep - 22:54:43 10° NW 23:03:09 37° NNE 23:11:36 10° E visible
18 Sep - 00:59:42 10° NW 01:09:01 86° NE 01:18:28 10° SE visible
18 Sep - 03:05:52 10° WNW 03:13:08 26° SW 03:20:35 10° S night (unlit)
18 Sep - 16:13:05 10° SSW 16:21:51 40° SE 16:30:21 10° ENE daylight
18 Sep - 18:16:55 10° WSW 18:26:25 66° NNW 18:35:41 10° NE daylight
18 Sep - 20:24:33 10° WNW 20:32:48 33° N 20:40:57 10° NE visible
18 Sep - 22:31:41 10° NW 22:40:03 36° NNE 22:48:25 10° E visible
19 Sep - 00:36:44 10° NW 00:46:01 81° NE 00:55:27 10° SE visible
19 Sep - 02:42:41 10° WNW 02:50:13 29° SW 02:57:55 10° S night (unlit)
19 Sep - 15:50:18 10° SSW 15:58:54 37° SE 16:07:16 10° ENE daylight
19 Sep - 17:53:50 10° WSW 18:03:24 70° NW 18:12:43 10° NE daylight
19 Sep - 20:01:23 10° WNW 20:09:41 34° NNW 20:17:54 10° NE visible
19 Sep - 22:08:38 10° NW 22:16:57 35° NNE 22:25:15 10° ENE visible
20 Sep - 00:13:45 10° NW 00:23:02 77° NE 00:32:25 10° ESE visible
20 Sep - 02:19:32 10° WNW 02:27:18 31° SW 02:35:14 10° S night (unlit)
20 Sep - 15:27:33 10° S 15:35:58 34° SE 15:44:09 10° ENE daylight
20 Sep - 17:30:46 10° WSW 17:40:23 74° NW 17:49:44 10° NE daylight
20 Sep - 19:38:11 10° WNW 19:46:35 35° NNW 19:54:51 10° NE visible
20 Sep - 21:45:35 10° NW 21:53:51 34° NNE 22:02:06 10° ENE visible
20 Sep - 23:50:46 10° NW 00:00:02 73° NE 00:09:22 10° ESE visible
21 Sep - 01:56:24 10° WNW 02:04:22 34° SW 02:12:31 10° S night (unlit)
21 Sep - 15:04:48 10° S 15:13:01 32° SE 15:21:01 10° ENE daylight
21 Sep - 17:07:42 10° WSW 17:17:23 78° NW 17:26:46 10° NE daylight
21 Sep - 19:15:00 10° W 19:23:28 36° NNW 19:31:49 10° NE visible
21 Sep - 21:22:31 10° NW 21:30:45 34° NNE 21:38:55 10° ENE visible
21 Sep - 23:27:47 10° NW 23:37:02 69° NE 23:46:19 10° ESE visible
22 Sep - 01:33:17 10° WNW 01:41:28 37° SW 01:49:47 10° SSE night (unlit)
22 Sep - 14:42:06 10° S 14:50:06 29° SE 14:57:52 10° ENE daylight
22 Sep - 16:44:39 10° SW 16:54:23 82° NW 17:03:48 10° NE daylight
22 Sep - 18:51:48 10° W 19:00:22 37° NNW 19:08:47 10° NE visible
22 Sep - 20:59:26 10° NW 21:07:39 33° N 21:15:46 10° ENE visible
22 Sep - 23:04:49 10° NW 23:14:01 66° NNE 23:23:15 10° ESE visible
